This is the latest recevied weather packets stored in our database for station/object KQ4OSL. If no packets are shown the sender has not sent any weather packets the latest 10 day(s).
| Time | Temp. | Humidity | Pressure | Rain* | Wind** | Luminosity | Snow |
|---|---|---|---|---|---|---|---|
| 1787789744 | 26.67° C | 79% | 1017.6 hPa | 0 mm | - | 1 W/m² | - |
| 1787789438 | 27.22° C | 78% | 1017.5 hPa | 0 mm | - | 1 W/m² | - |
| 1787789138 | 27.22° C | 77% | 1017.5 hPa | 0 mm | - | 2 W/m² | - |
| 1787788837 | 27.22° C | 77% | 1017.3 hPa | 0 mm | - | 4 W/m² | - |
| 1787788535 | 26.67° C | 77% | 1017.3 hPa | 0 mm | - | 6 W/m² | - |
| 1787788230 | 26.11° C | 87% | 1017.6 hPa | 0 mm | - | 7 W/m² | - |
| 1787787927 | 26.67° C | 88% | 1017.4 hPa | 0 mm | - | 9 W/m² | - |
| 1787787621 | 26.67° C | 87% | 1017.6 hPa | 0 mm | - | 11 W/m² | - |
| 1787787320 | 26.67° C | 86% | 1017.4 hPa | 0 mm | - | 10 W/m² | - |
| 1787787020 | 27.22° C | 83% | 1017.1 hPa | 0 mm | - | 15 W/m² | - |
| 1787786715 | 27.22° C | 82% | 1017.2 hPa | 0 mm | - | 26 W/m² | - |
| 1787786414 | 27.22° C | 81% | 1017.1 hPa | 0 mm | - | 31 W/m² | - |
| 1787786110 | 27.78° C | 82% | 1017.1 hPa | 0 mm | - | 35 W/m² | - |
| 1787785806 | 27.78° C | 79% | 1017 hPa | 0 mm | - | 38 W/m² | - |
| 1787785501 | 27.78° C | 79% | 1017 hPa | 0 mm | - | 42 W/m² | - |
| 1787785200 | 28.33° C | 79% | 1017.1 hPa | 0 mm | - | 47 W/m² | - |
| 1787784895 | 28.33° C | 75% | 1017.5 hPa | 0 mm | - | 52 W/m² | - |
| 1787784594 | 28.33° C | 74% | 1017 hPa | 0 mm | - | 58 W/m² | - |
| 1787784293 | 28.33° C | 75% | 1017.2 hPa | 0 mm | - | 60 W/m² | - |
| 1787783988 | 28.89° C | 76% | 1017.4 hPa | 0 mm | - | 65 W/m² | - |
| 1787783685 | 29.44° C | 75% | 1017.2 hPa | 0 mm | - | 70 W/m² | - |
| 1787783384 | 29.44° C | 74% | 1017.4 hPa | 0 mm | - | 74 W/m² | - |
| 1787783080 | 28.89° C | 70% | 1017.6 hPa | 0 mm | - | 79 W/m² | - |
| 1787782779 | 29.44° C | 69% | 1017.5 hPa | 0 mm | - | 86 W/m² | - |
| 1787782475 | 29.44° C | 66% | 1017.4 hPa | 0 mm | - | 89 W/m² | - |
* Rain latest hour (hover to see other rain measurements)
** Current wind speed in m/s (hover to see current wind gust speed)